Marshfield, WI

6:21 PM CST on January 20, 2017 (GMT -0600)
Marshfield Municipal

Weather History for KMFI - July, 2014

Change the Weather History Date:

Tuesday, July 22, 2014

  Actual Average Record
Temperature  
Mean Temperature 75 °F -  
Max Temperature 86 °F 82 °F 94 °F (1983)
Min Temperature 64 °F 57 °F 40 °F (1947)
Cooling Degree Days 10    
Growing Degree Days 25 (Base 50)    
Moisture  
Dew Point 67 °F    
Average Humidity 74    
Maximum Humidity 85    
Minimum Humidity 55    
Precipitation  
Precipitation 0.00 in - - ()
Sea Level Pressure  
Sea Level Pressure 29.93 in    
Wind  
Wind Speed 12 mph (WSW)    
Max Wind Speed 18 mph    
Max Gust Speed 26 mph    
Visibility 10 miles    
Events      
Averages and records for this station are not official NWS values.
T = Trace of Precipitation, MM = Missing Value Source: NWS Daily Summary

Daily Weather History Graph

Daily Weather History Graph

Search for Another Location

Airport or City:

Trip Planner

Search our weather history database for the weather conditions in past years. The results will help you decide how hot, cold, wet, or windy it might be!

Date:

Astronomy

Jul. 22, 2014 Rise Set
Actual Time 5:36 AM CDT 8:37 PM CDT
Civil Twilight 5:01 AM CDT 9:12 PM CDT
Nautical Twilight 4:17 AM CDT 9:56 PM CDT
Astronomical Twilight 3:23 AM CDT 10:49 PM CDT
Moon 2:11 AM CDT (7/22) 5:14 PM CDT (7/22)
Length of Visible Light 16h 10m
Length of Day
15h 01m
Waning Crescent, 16% of the Moon is Illuminated
Jul 22
Waning Crescent
Jul 26
New
Aug 3
First Quarter
Aug 10
Full
Aug 17
Last Quarter

Hourly Weather History & Observations

Time (CDT) Temp. Heat Index Dew Point Humidity Pressure Visibility Wind Dir Wind Speed Gust Speed Precip Events Conditions
12:54 AM 73.9 °F - 68.0 °F 82% 29.93 in 10.0 mi South 10.4 mph - N/A   Overcast
1:25 AM 73.0 °F - 68.0 °F 84% 29.95 in 10.0 mi South 10.4 mph - N/A   Overcast
1:54 AM 73.0 °F - 68.0 °F 84% 29.92 in 10.0 mi South 9.2 mph - N/A   Scattered Clouds
2:07 AM 73.0 °F - 68.0 °F 84% 29.94 in 10.0 mi South 10.4 mph - N/A   Mostly Cloudy
2:27 AM 73.0 °F - 68.0 °F 84% 29.93 in 10.0 mi South 10.4 mph - N/A   Scattered Clouds
2:54 AM 73.0 °F - 68.0 °F 84% 29.90 in 10.0 mi South 10.4 mph - N/A   Scattered Clouds
3:54 AM 73.0 °F - 68.0 °F 84% 29.84 in 10.0 mi South 15.0 mph 24.2 mph N/A   Partly Cloudy
4:54 AM 73.0 °F - 68.0 °F 84% 29.86 in 10.0 mi South 11.5 mph - N/A   Scattered Clouds
5:54 AM 73.0 °F - 68.0 °F 84% 29.85 in 9.0 mi SSW 10.4 mph - N/A   Partly Cloudy
6:54 AM 73.9 °F - 69.1 °F 85% 29.85 in 9.0 mi SSW 11.5 mph - N/A   Clear
7:51 AM 75.2 °F - 69.8 °F 83% 29.90 in 8.0 mi SW 11.5 mph - N/A   Overcast
7:54 AM 75.0 °F - 70.0 °F 84% 29.88 in 8.0 mi SW 10.4 mph - N/A   Overcast
8:54 AM 77.0 °F - 71.1 °F 82% 29.87 in 8.0 mi WSW 12.7 mph - N/A   Overcast
9:19 AM 79.0 °F - 72.0 °F 79% 29.89 in 8.0 mi WSW 12.7 mph 20.7 mph N/A   Overcast
9:54 AM 80.1 °F 84.2 °F 73.0 °F 79% 29.87 in 8.0 mi West 11.5 mph 20.7 mph N/A   Mostly Cloudy
10:54 AM 84.0 °F 91.2 °F 73.9 °F 72% 29.85 in 10.0 mi West 10.4 mph - N/A   Mostly Cloudy
11:18 AM 84.9 °F 91.4 °F 73.0 °F 67% 29.88 in 10.0 mi West 13.8 mph 21.9 mph N/A   Mostly Cloudy
12:54 PM 84.9 °F 88.2 °F 68.0 °F 57% 29.91 in 10.0 mi WNW 17.3 mph - N/A   Clear
1:54 PM 84.0 °F 86.3 °F 66.0 °F 55% 29.93 in 10.0 mi NW 17.3 mph 26.5 mph N/A   Partly Cloudy
2:54 PM 84.0 °F 86.3 °F 66.0 °F 55% 29.93 in 10.0 mi WNW 15.0 mph - N/A   Clear
3:54 PM 81.0 °F 83.0 °F 66.0 °F 60% 29.96 in 10.0 mi NW 15.0 mph - N/A   Scattered Clouds
4:54 PM 81.0 °F 82.7 °F 64.9 °F 58% 29.97 in 10.0 mi NW 18.4 mph - N/A   Scattered Clouds
5:54 PM 78.1 °F - 63.0 °F 60% 30.00 in 10.0 mi NW 12.7 mph - N/A   Mostly Cloudy
6:54 PM 78.1 °F - 63.0 °F 60% 30.01 in 10.0 mi NNW 15.0 mph - N/A   Clear
7:54 PM 77.0 °F - 63.0 °F 62% 30.04 in 10.0 mi North 17.3 mph 25.3 mph N/A   Mostly Cloudy
9:54 PM 69.1 °F - 57.9 °F 68% 30.08 in 10.0 mi NNE 12.7 mph 19.6 mph N/A   Clear
10:54 PM 66.9 °F - 57.0 °F 70% 30.09 in 10.0 mi NNE 10.4 mph - N/A   Clear
11:54 PM 64.9 °F - 57.0 °F 75% 30.10 in 10.0 mi NNE 9.2 mph - N/A   Clear